Iguazu, Argentina

10:14 AM America on February 21, 2018 (GMT +0000)
Mayor D Carlos Eduardo Krause

Weather History for SARI - March, 2013

Change the Weather History Date:

Saturday, March 2, 2013

  Actual Average Record
Temperature  
Mean Temperature 79 °F -  
Max Temperature 91 °F 85 °F 98 °F (2004)
Min Temperature 67 °F 65 °F 60 °F (1998)
Cooling Degree Days 14    
Growing Degree Days 29 (Base 50)    
Moisture  
Dew Point 71 °F    
Average Humidity 78    
Maximum Humidity 94    
Minimum Humidity 49    
Precipitation  
Precipitation 0.00 in - - ()
Sea Level Pressure  
Sea Level Pressure 29.91 in    
Wind  
Wind Speed 4 mph ()    
Max Wind Speed 14 mph    
Max Gust Speed -    
Visibility 9.7 miles    
Events      
Averages and records for this station are not official NWS values.
T = Trace of Precipitation, MM = Missing Value Source: Averaged Metar Reports

Daily Weather History Graph

Daily Weather History Graph

Search for Another Location

Airport or City:

Trip Planner

Search our weather history database for the weather conditions in past years. The results will help you decide how hot, cold, wet, or windy it might be!

Date:

Astronomy

Mar. 02, 2013 Rise Set
Actual Time 6:32 AM -03 7:06 PM -03
Civil Twilight 6:09 AM -03 7:30 PM -03
Nautical Twilight 5:41 AM -03 7:57 PM -03
Astronomical Twilight 5:14 AM -03 8:25 PM -03
Moon 10:23 PM -03 (3/2) 11:03 AM -03 (3/2)
Length of Visible Light 13h 20m
Length of Day
12h 34m
Waning Gibbous, 75% of the Moon is Illuminated
Mar 2
Waning Gibbous
Mar 4
Last Quarter
Mar 11
New
Mar 19
First Quarter
Mar 27
Full

Hourly Weather History & Observations

Time (-03) Temp. Heat Index Dew Point Humidity Pressure Visibility Wind Dir Wind Speed Gust Speed Precip Events Conditions
12:00 AM 73.4 °F - 71.6 °F 94% 29.86 in - Calm Calm - N/A   Clear
1:00 AM 71.6 °F - 69.8 °F 94% 29.86 in - Calm Calm - N/A   Clear
2:00 AM 71.6 °F - 69.8 °F 94% 29.86 in - Calm Calm - N/A   Clear
3:00 AM 69.8 °F - 68.0 °F 94% 29.86 in - Calm Calm - N/A   Clear
4:00 AM 69.8 °F - 68.0 °F 94% 29.83 in - Calm Calm - N/A   Clear
5:00 AM 69.8 °F - 68.0 °F 94% 29.86 in - Calm Calm - N/A   Clear
6:00 AM 68.0 °F - 66.2 °F 94% 29.86 in - NE 9.2 mph - N/A   Clear
7:00 AM 68.0 °F - 66.2 °F 94% 29.89 in - NE 9.2 mph - N/A   Clear
8:00 AM 71.6 °F - 68.0 °F 88% 29.95 in - NE 9.2 mph - N/A   Clear
9:00 AM 76 °F - 67 °F 68% 29.90 in 12 mi North 10.4 mph - -   Clear
9:00 AM 75.2 °F - 68.0 °F 78% 29.95 in - North 10.4 mph - N/A   Clear
10:00 AM 78.8 °F - 68.0 °F 69% 29.98 in - NE 9.2 mph - N/A   Clear
11:00 AM 82.4 °F 87.2 °F 71.6 °F 70% 30.01 in - NE 4.6 mph - N/A   Clear
12:00 PM 86.0 °F 91.8 °F 71.6 °F 62% 29.98 in - NE 13.8 mph - N/A   Clear
1:00 PM 87.8 °F 93.8 °F 71.6 °F 58% 29.95 in 6.2 mi North 9.2 mph - N/A   Mostly Cloudy
2:00 PM 89.6 °F 96.2 °F 71.6 °F 55% 29.92 in - North 9.2 mph - N/A   Clear
3:00 PM 90 °F - 73 °F 49% 29.85 in 12 mi North 6.9 mph - -   Clear
3:00 PM 89.6 °F 98.2 °F 73.4 °F 59% 29.92 in - North 11.5 mph - N/A   Clear
4:00 PM 89.6 °F 96.2 °F 71.6 °F 55% 29.92 in 6.2 mi North 11.5 mph - N/A   Unknown
5:00 PM 91.4 °F 100.1 °F 73.4 °F 55% 29.92 in - North 5.8 mph - N/A   Clear
6:00 PM 89.6 °F 99.8 °F 75.2 °F 62% 29.92 in - NE 3.5 mph - N/A   Clear
7:00 PM 86.0 °F 96.9 °F 77.0 °F 74% 29.92 in - NE 3.5 mph - N/A   Clear
8:00 PM 80.6 °F 86.2 °F 75.2 °F 84% 29.92 in - ENE 5.8 mph - N/A   Clear
9:00 PM 78 °F - 75 °F 89% 29.84 in 12 mi NE 5.8 mph - -   Clear
9:00 PM 78.8 °F - 75.2 °F 89% 29.89 in - NE 5.8 mph - N/A   Clear
10:00 PM 77.0 °F - 75.2 °F 94% 29.92 in - NE 6.9 mph - N/A   Clear
11:00 PM 77.0 °F - 73.4 °F 89% 29.92 in - NE 5.8 mph - N/A   Clear